Preview of NWS' New Version of Forecast
This preview is not operational and should not be used for support decisions.
Latest weather observations around

Los Angeles, Los Angeles International Airport (KLAX)

Using English Units (Switch to International System of Units)
Date/ Time (PDT) Wind (mph) Vis. (mi) Weather Sky Cond. Temp (°F) Rel. Humidity Wind Chill (°F) Heat Index (°F) Pressure Precip. (in)
Air Dwpt 6 hour Altimeter (inHg) Sea level (inHg) 1 hr 3 hr 6 hr
Max Min
Sep 21 13:53 W 13 10 Clear CLR 79 60     52%   79 29.84 29.83      
Sep 21 12:53 WSW 10 10 Clear CLR 78 62     58%   78 29.86 29.86      
Sep 21 11:53 WSW 9 10 Clear CLR 78 62     58%   78 29.89 29.88      
Sep 21 10:53 W 10 10 Clear CLR 79 60     52%   79 29.9 29.9      
Sep 21 09:53 Calm 10 Clear CLR 75 61     62%   75 29.92 29.91      
Sep 21 08:53 E 3 10 Clear CLR 71 61     70%   71 29.91 29.91      
Sep 21 07:53 E 6 10 Clear CLR 68 61     78%     29.91 29.9      
Sep 21 06:53 E 3 10 Clear CLR 65 59     81%     29.89 29.88      
Sep 21 05:53 ENE 3 10 Clear CLR 65 59     81%     29.88 29.87      
Sep 21 04:53 NE 3 10 Clear CLR 66 59     78%     29.87 29.86      
Sep 21 03:53 Calm 10 Clear CLR 65 59     81%     29.87 29.86      
Sep 21 02:53 Calm 10 Clear CLR 67 60     79%     29.88 29.87      
Sep 21 01:53 Calm 10 Clear CLR 69 60     73%     29.88 29.88      
Sep 21 00:53 Calm 10 Clear CLR 69 59     70%     29.88 29.88      
Sep 20 23:53 SSE 3 10 Clear CLR 69 61     75%     29.87 29.87      
Sep 20 22:53 S 5 10 Clear CLR 70 61     73%     29.88 29.87      
Sep 20 21:53 WSW 9 10 Clear CLR 70 61     73%     29.86 29.85      
Sep 20 20:53 WSW 10 10 Clear CLR 71 60     68%   71 29.85 29.84      
Sep 20 19:53 WSW 10 10 Mostly Clear FEW013 70 61     73%     29.83 29.83      
Sep 20 18:53 W 13 10 Mostly Clear FEW013 71 63     76%   71 29.83 29.82      
Sep 20 17:53 W 16 10 Mostly Clear FEW014 73 63     71%   73 29.82 29.82      
Sep 20 16:53 WSW 14 10 Clear   74 62     66%   74 29.85 29.84      
Sep 20 15:53 W 15 10 Mostly Clear FEW018 75 60     60%   75 29.85 29.84      
Sep 20 14:53 WSW 15 10 Clear   75 60     60%   75 29.86 29.85      
Sep 20 13:53 WSW 13 10 Mostly Clear FEW019 76 60     58%   76 29.88 29.87      
Sep 20 12:53 WSW 13 10 Mostly Clear FEW035 76 60     58%   76 29.89 29.88      
Sep 20 11:53 WSW 9 10 Mostly Clear FEW032 76 59     56%   76 29.89 29.88      
Sep 20 10:53 3 9 Partly Cloudy SCT022 SCT030 75 59     57%   75 29.9 29.89      
Sep 20 10:09 W 5 9 Mostly Cloudy SCT022 BKN030 72 59     64%   72 29.91        
Sep 20 09:53 Calm 9 Mostly Cloudy FEW021 BKN028 BKN033 73 57     57%   73 29.91 29.91      
Sep 20 09:22 Calm 9 Mostly Cloudy BKN020 72 60     66%   72 29.91        
Sep 20 08:53 Calm 9 Partly Cloudy SCT015 SCT160 71 60     68%   71 29.91 29.9      
Sep 20 07:53 E 5 9 Partly Cloudy FEW014 FEW018 SCT160 69 60     73%     29.89 29.88      
Sep 20 06:53 Calm 9 Mostly Cloudy FEW012 SCT018 BKN160 66 59     78%     29.89 29.88      
Sep 20 05:53 NE 5 10 Mostly Cloudy FEW012 BKN018 67 59     76%     29.88 29.87      
Sep 20 05:30 NE 6 10 Mostly Cloudy FEW012 BKN018 66 59     78%     29.87        
Sep 20 04:53 E 3 10 Mostly Clear FEW014 FEW019 65 58     78%     29.87 29.86      
Sep 20 03:53 ENE 5 10 Mostly Clear FEW012 FEW017 66 59     78%     29.86 29.85      
Sep 20 02:53 NE 5 10 Partly Cloudy FEW012 SCT017 67 58     73%     29.86 29.85      
Sep 20 01:53 3 10 Mostly Clear FEW014 66 59     78%     29.86 29.85      
Sep 20 00:53 SSE 5 10 Mostly Clear FEW014 67 60     79%     29.84 29.83      
Sep 19 23:53 WSW 7 10 Mostly Clear FEW012 68 58     70%     29.83 29.82      
Sep 19 22:53 WSW 7 10 Mostly Clear FEW024 69 58     68%     29.82 29.82      
Sep 19 21:53 WSW 6 10 Clear CLR 69 57     65%     29.82 29.81      
Sep 19 20:53 WSW 8 10 Clear CLR 70 57     63%     29.82 29.81      
Sep 19 19:53 SW 7 10 Clear CLR 70 60     71%     29.81 29.8      
Sep 19 18:53 WSW 10 10 Clear CLR 70 61     73%     29.81 29.8      
Sep 19 17:53 W 14 10 Mostly Clear FEW015 FEW032 71 61     70%   71 29.82 29.82      
Sep 19 16:53 W 17 10 Mostly Clear FEW015 FEW032 73 61     66%   73 29.82 29.82      
Sep 19 15:53 W 13 10 Partly Cloudy SCT015 SCT032 74 61     64%   74 29.83 29.83      
Sep 19 14:53 WSW 15 10 Mostly Clear FEW018 FEW032 76 61     60%   76 29.84 29.83      
Sep 19 13:53 WSW 15 10 Partly Cloudy FEW019 SCT032 76 59     56%   76 29.85 29.84      
Sep 19 12:53 SW 13 10 Partly Cloudy SCT019 SCT030 78 59     52%   78 29.86 29.85      
Sep 19 11:53 WSW 10 10 Mostly Cloudy SCT018 BKN030 76 60     58%   76 29.88 29.87      
Sep 19 10:53 5 10 Mostly Cloudy SCT018 BKN030 76 59     56%   76 29.89 29.88      
Sep 19 10:41 Calm 10 Mostly Cloudy SCT018 BKN030 74 58     57%   74 29.89        
Sep 19 09:53 ESE 8 10 Mostly Cloudy SCT017 BKN025 74 59     60%   74 29.9 29.89      
Sep 19 08:53 E 7 8 Mostly Cloudy SCT016 BKN032 72 60     66%   72 29.9 29.89      
Sep 19 07:53 ESE 7 8 Mostly Cloudy SCT016 BKN032 70 61     73%     29.89 29.88      
Sep 19 07:39 3 8 Mostly Cloudy SCT014 BKN032 70 62     76%     29.89        
Sep 19 06:53 SE 5 8 Mostly Cloudy FEW012 SCT018 BKN029 68 62     81%     29.89 29.88      
Sep 19 05:53 E 6 10 Mostly Cloudy FEW012 SCT018 BKN025 67 61     81%     29.88 29.87      
Sep 19 05:25 E 5 10 Mostly Cloudy FEW012 BKN018 BKN026 66 61     84%     29.88        
Sep 19 04:53 ENE 5 10 Mostly Cloudy FEW011 BKN014 66 60     81%     29.88 29.87      
Sep 19 03:53 ESE 5 10 Mostly Cloudy FEW010 BKN014 67 60     79%     29.88 29.88      
Sep 19 03:15 E 3 10 Mostly Cloudy FEW010 BKN014 68 62     81%     29.89        
Sep 19 02:53 Calm 10 Mostly Clear FEW014 68 62     81%     29.89 29.88      
Sep 19 01:53 S 3 10 Mostly Clear FEW012 69 62     78%     29.89 29.88      
Sep 19 00:53 WSW 3 10 Mostly Clear FEW012 69 62     78%     29.88 29.87      
Sep 18 23:53 S 5 10 Mostly Clear FEW012 FEW018 69 62     78%     29.87 29.86      
Sep 18 22:53 SW 5 10 Mostly Clear FEW012 FEW018 69 63     81%     29.88 29.87      
Sep 18 21:53 SW 7 10 Mostly Clear FEW015 70 63     78%     29.88 29.87      
Sep 18 20:53 W 5 10 Mostly Clear FEW015 70 64     81%     29.88 29.87      
Sep 18 19:53 WSW 10 10 Mostly Clear FEW015 70 64     81%     29.87 29.86      
Sep 18 18:53 WSW 11 10 Mostly Clear FEW015 71 63     76%   71 29.86 29.85      
Sep 18 17:53 W 13 10 Mostly Clear FEW015 73 62     68%   73 29.87 29.86      
Sep 18 16:53 W 15 10 Mostly Clear FEW015 75 62     64%   75 29.87 29.87      
Sep 18 15:53 W 15 10 Mostly Clear FEW050 76 62     62%   76 29.88 29.88      
Sep 18 14:53 W 14 10 Clear CLR 77 62     60%   77 29.9 29.89      
Sep 18 12:53 WSW 11 10 Mostly Clear FEW018 77 61     58%   77 29.92 29.91      
Sep 18 11:53 W 11 10 Mostly Clear FEW015 77 62     60%   77 29.93 29.93      
May 15 08:53 SSW 8 8 Mostly Cloudy BKN021 62 52     70%     30.06 30.05      
May 14 11:53 WSW 17 8 Partly Cloudy FEW027 SCT140 SCT180 65 53     65%     30.01 30      
May 14 09:09 6 7 Mostly Cloudy SCT018 BKN140 63 53     70%     29.99        
May 11 17:53 ESE 7 10 Mostly Cloudy BKN025 BKN031 63 52     67%     29.82 29.81      
Jun 12 02:53 E 6 10 Mostly Clear FEW090 FEW220 57 51     81%     29.97 29.96      
Jun 10 23:53 SW 6 10 Clear   63 57     81%     29.87 29.86      
Jun 10 06:53 WSW 6 10 Cloudy BKN020 OVC026 62 58     86%     29.88 29.87      
Jun 10 05:53 WSW 3 10 Mostly Cloudy BKN023 62 57     84%     29.87 29.86      
Jun 09 15:53 WSW 14 10 Partly Cloudy FEW013 SCT100 69 60     73%     29.91 29.9      
Jun 09 12:53 WSW 14 9 Mostly Clear FEW017 FEW120 70 55     59%     29.96 29.95      
Jun 09 00:53 SSW 3 10 Mostly Clear FEW011 61 56     83%     29.94 29.93      
Jun 08 16:53 WSW 21 10 Clear and Windy   67 57     71%     29.95 29.95      
Jun 08 05:53 W 7 4 Clear   61 60     97%     29.99 29.98 0    
Jun 07 15:53 WSW 13 10 Mostly Clear FEW022 68 59     73%     29.94 29.93      
Jun 07 12:53 7 7 Cloudy OVC016 65 59     81%     29.98 29.98      
Jun 07 10:53 WSW 9 6 Haze SCT012 OVC014 63 59     87%     29.97 29.97     0
Jun 07 09:53 WSW 7 5 Fog/Mist BKN013 OVC018 63 59     87%     29.96 29.96